Weather History for Alexandria, LA

Change the Weather History Date:

Friday, August 16, 2013

  Actual Average Record
Temperature  
Mean Temperature 77 °F 83 °F  
Max Temperature 88 °F 94 °F 104 °F (1902)
Min Temperature 65 °F 72 °F 57 °F (2004)
Cooling Degree Days 12 18  
Month to date cooling degree days 316 288  
Year to date cooling degree days 1717 1734  
Since 1 June cooling degree days 1324 1280  
Growing Degree Days 26 (Base 50)    
Moisture  
Dew Point 65 °F    
Average Humidity 72    
Maximum Humidity 100    
Minimum Humidity 43    
Precipitation  
Precipitation 0.00 in 0.13 in 3.87 in (1985)
Month to date precipitation 2.75 1.69  
Year to date precipitation 35.66 34.42  
Sea Level Pressure  
Sea Level Pressure 29.98 in    
Wind  
Wind Speed 4 mph (North)    
Max Wind Speed 10 mph    
Max Gust Speed 15 mph    
Visibility 10 miles    
Events      
T = Trace of Precipitation, MM = Missing Value Source: NWS Daily Summary

Daily Weather History Graph

Daily Weather History Graph

Search for Another Location

Airport:

Trip Planner

Search our weather history database for the weather conditions in past years. The results will help you decide how hot, cold, wet, or windy it might be!

Date:

Astronomy

Aug. 16, 2013 Rise Set
Actual Time 6:36 AM CDT 7:51 PM CDT
Civil Twilight 6:11 AM CDT 8:17 PM CDT
Nautical Twilight 5:40 AM CDT 8:47 PM CDT
Astronomical Twilight 5:09 AM CDT 9:18 PM CDT
Moon 4:03 PM CDT (8/16) 1:46 AM CDT (8/16)
Length of Visible Light 14h 06m
Length of Day
13h 15m
Waxing Gibbous, 75% of the Moon is Illuminated
Aug 16
Waxing Gibbous
Aug 20
Full
Aug 28
Last Quarter
Sep 5
New
Sep 12
First Quarter

Hourly Weather History & Observations

Time (CDT) Temp. Heat Index Dew Point Humidity Pressure Visibility Wind Dir Wind Speed Gust Speed Precip Events Conditions
12:53 AM 72.0 °F - 66.9 °F 84% 29.99 in 10.0 mi NNE 3.5 mph - N/A   Clear
1:53 AM 70.0 °F - 66.9 °F 90% 29.98 in 10.0 mi Calm Calm - N/A   Clear
2:53 AM 69.1 °F - 66.9 °F 93% 29.97 in 10.0 mi Calm Calm - N/A   Clear
3:53 AM 68.0 °F - 66.0 °F 93% 29.96 in 8.0 mi Calm Calm - N/A   Clear
4:53 AM 66.9 °F - 64.9 °F 93% 29.97 in 8.0 mi Calm Calm - N/A   Clear
5:53 AM 66.0 °F - 64.0 °F 93% 29.98 in 8.0 mi Calm Calm - N/A   Clear
6:53 AM 64.9 °F - 64.0 °F 97% 29.99 in 8.0 mi Calm Calm - N/A   Clear
7:53 AM 68.0 °F - 64.0 °F 87% 30.00 in 10.0 mi NNW 3.5 mph - N/A   Clear
8:53 AM 72.0 °F - 64.0 °F 76% 30.01 in 10.0 mi NE 3.5 mph - N/A   Clear
9:53 AM 75.9 °F - 64.0 °F 67% 30.01 in 10.0 mi Variable 4.6 mph - N/A   Clear
10:53 AM 80.1 °F 81.9 °F 64.9 °F 60% 30.01 in 10.0 mi Variable 3.5 mph - N/A   Clear
11:53 AM 84.0 °F 86.3 °F 66.0 °F 55% 30.01 in 10.0 mi NNW 5.8 mph - N/A   Clear
12:53 PM 84.9 °F 86.6 °F 64.9 °F 51% 29.99 in 10.0 mi North 9.2 mph - N/A   Clear
1:53 PM 87.1 °F 87.5 °F 62.1 °F 43% 29.98 in 10.0 mi North 6.9 mph - N/A   Clear
2:53 PM 88.0 °F 88.7 °F 63.0 °F 43% 29.96 in 10.0 mi NNW 10.4 mph - N/A   Clear
3:53 PM 88.0 °F 88.7 °F 63.0 °F 43% 29.95 in 10.0 mi North 4.6 mph - N/A   Clear
4:53 PM 88.0 °F 89.3 °F 64.0 °F 45% 29.95 in 10.0 mi North 4.6 mph - N/A   Scattered Clouds
5:53 PM 86.0 °F 87.6 °F 64.9 °F 49% 29.95 in 10.0 mi North 6.9 mph - N/A   Clear
6:53 PM 82.0 °F 84.1 °F 66.0 °F 58% 29.95 in 10.0 mi NE 4.6 mph - N/A   Clear
7:53 PM 79.0 °F - 66.0 °F 64% 29.97 in 10.0 mi Calm Calm - N/A   Clear
8:53 PM 75.9 °F - 66.9 °F 74% 29.97 in 10.0 mi NNE 3.5 mph - N/A   Clear
9:53 PM 75.0 °F - 66.0 °F 73% 30.00 in 10.0 mi North 4.6 mph - N/A   Clear
10:53 PM 75.0 °F - 63.0 °F 66% 30.00 in 10.0 mi North 9.2 mph - N/A   Clear
11:53 PM 72.0 °F - 63.0 °F 73% 30.01 in 10.0 mi North 6.9 mph - N/A   Clear